owner,sensor,date,latitude,longitude,vertical_datum,direction_of_sea_water_velocity,sea_water_speed,upward_sea_water_velocity,qcFlag 
TABS,ioos:station:TABS:E:1,1995-11-09T18:30:00Z,27.3383,-97.1000,2.0,215.8997552,3.308473968,-99999.0,'11133222,11111222,99999999' 
TABS,ioos:station:TABS:E:1,1995-11-09T19:00:00Z,27.3383,-97.1000,2.0,205.0025573,2.46058936,-99999.0,'11133222,11111222,99999999' 
TABS,ioos:station:TABS:E:1,1995-11-09T19:30:00Z,27.3383,-97.1000,2.0,228.3926874,1.792121648,-99999.0,'11133222,11111222,99999999' 
TABS,ioos:station:TABS:E:1,1995-11-09T20:00:00Z,27.3383,-97.1000,2.0,178.0111563,4.322603382,-99999.0,'11133222,11111222,99999999' 
TABS,ioos:station:TABS:E:1,1995-11-09T20:30:00Z,27.3383,-97.1000,2.0,172.6383941,8.116902118,-99999.0,'11133222,11111222,99999999' 
TABS,ioos:station:TABS:E:1,1995-11-09T21:00:00Z,27.3383,-97.1000,2.0,167.9313242,10.66573017,-99999.0,'11111222,11111222,99999999' 
TABS,ioos:station:TABS:E:1,1995-11-09T21:30:00Z,27.3383,-97.1000,2.0,159.6429324,14.14333765,-99999.0,'11111222,11111222,99999999' 
TABS,ioos:station:TABS:E:1,1995-11-09T22:00:00Z,27.3383,-97.1000,2.0,153.772824,12.12864378,-99999.0,'11111222,11111222,99999999' 
TABS,ioos:station:TABS:E:1,1995-11-09T22:30:00Z,27.3383,-97.1000,2.0,143.6373865,13.32452251,-99999.0,'11111222,11111222,99999999' 
TABS,ioos:station:TABS:E:1,1995-11-09T23:00:00Z,27.3383,-97.1000,2.0,156.0406607,17.60711788,-99999.0,'11111222,11111222,99999999' 
TABS,ioos:station:TABS:E:1,1995-11-09T23:30:00Z,27.3383,-97.1000,2.0,181.7054225,45.01994669,-99999.0,'11111222,11111222,99999999' 
TABS,ioos:station:TABS:E:1,1995-11-10T00:00:00Z,27.3383,-97.1000,2.0,182.1702351,47.26390801,-99999.0,'11111222,11111222,99999999' 
TABS,ioos:station:TABS:E:1,1995-11-10T00:30:00Z,27.3383,-97.1000,2.0,182.2701223,45.1854689,-99999.0,'11111222,11111222,99999999' 
TABS,ioos:station:TABS:E:1,1995-11-10T01:00:00Z,27.3383,-97.1000,2.0,181.2302379,48.43116765,-99999.0,'11111222,11111222,99999999' 
TABS,ioos:station:TABS:E:1,1995-11-10T01:30:00Z,27.3383,-97.1000,2.0,180.6496178,52.90340254,-99999.0,'11111222,11111222,99999999' 
TABS,ioos:station:TABS:E:1,1995-11-10T02:00:00Z,27.3383,-97.1000,2.0,181.8927897,49.64709458,-99999.0,'11111222,11111222,99999999' 
TABS,ioos:station:TABS:E:1,1995-11-10T02:30:00Z,27.3383,-97.1000,2.0,185.2580319,47.13837078,-99999.0,'11111222,11111222,99999999' 
TABS,ioos:station:TABS:E:1,1995-11-10T03:00:00Z,27.3383,-97.1000,2.0,188.0206962,43.78837403,-99999.0,'11111222,11111222,99999999' 
TABS,ioos:station:TABS:E:1,1995-11-10T03:30:00Z,27.3383,-97.1000,2.0,192.133156,40.39232848,-99999.0,'11111222,11111222,99999999' 
TABS,ioos:station:TABS:E:1,1995-11-10T04:00:00Z,27.3383,-97.1000,2.0,190.6991079,35.3342893,-99999.0,'11111222,11111222,99999999' 
TABS,ioos:station:TABS:E:1,1995-11-10T04:30:00Z,27.3383,-97.1000,2.0,188.2497672,29.06073812,-99999.0,'11111222,11111222,99999999' 
TABS,ioos:station:TABS:E:1,1995-11-10T05:00:00Z,27.3383,-97.1000,2.0,190.8828735,26.85296632,-99999.0,'11111222,11111222,99999999' 
TABS,ioos:station:TABS:E:1,1995-11-10T05:30:00Z,27.3383,-97.1000,2.0,182.2955477,22.21783293,-99999.0,'11111222,11111222,99999999' 
TABS,ioos:station:TABS:E:1,1995-11-10T06:00:00Z,27.3383,-97.1000,2.0,179.9997895,21.01,-99999.0,'11111222,11111222,99999999' 
TABS,ioos:station:TABS:E:1,1995-11-10T06:30:00Z,27.3383,-97.1000,2.0,180.4971351,17.28065103,-99999.0,'11111222,11111222,99999999' 
TABS,ioos:station:TABS:E:1,1995-11-10T07:00:00Z,27.3383,-97.1000,2.0,195.9403127,16.27585328,-99999.0,'11111222,11111222,99999999' 
TABS,ioos:station:TABS:E:1,1995-11-10T07:30:00Z,27.3383,-97.1000,2.0,192.7664034,8.100253082,-99999.0,'11133222,11111222,99999999' 
TABS,ioos:station:TABS:E:1,1995-11-10T08:00:00Z,27.3383,-97.1000,2.0,209.4465327,29.08777922,-99999.0,'11111222,11111222,99999999' 
TABS,ioos:station:TABS:E:1,1995-11-10T08:30:00Z,27.3383,-97.1000,2.0,203.827329,30.61987916,-99999.0,'11111222,11111222,99999999' 
TABS,ioos:station:TABS:E:1,1995-11-10T09:00:00Z,27.3383,-97.1000,2.0,199.5037883,35.25288357,-99999.0,'11111222,11111222,99999999' 
TABS,ioos:station:TABS:E:1,1995-11-10T09:30:00Z,27.3383,-97.1000,2.0,204.9087834,34.66458712,-99999.0,'11111222,11111222,99999999' 
TABS,ioos:station:TABS:E:1,1995-11-10T10:00:00Z,27.3383,-97.1000,2.0,208.1637356,30.93239241,-99999.0,'11111222,11111222,99999999' 
TABS,ioos:station:TABS:E:1,1995-11-10T10:30:00Z,27.3383,-97.1000,2.0,205.2715639,29.32679321,-99999.0,'11111222,11111222,99999999' 
TABS,ioos:station:TABS:E:1,1995-11-10T11:00:00Z,27.3383,-97.1000,2.0,207.7149191,23.39398427,-99999.0,'11111222,11111222,99999999' 
TABS,ioos:station:TABS:E:1,1995-11-10T11:30:00Z,27.3383,-97.1000,2.0,190.6097477,21.83327735,-99999.0,'11111222,11111222,99999999' 
TABS,ioos:station:TABS:E:1,1995-11-10T12:00:00Z,27.3383,-97.1000,2.0,183.4308575,22.39013399,-99999.0,'11111222,11111222,99999999' 
TABS,ioos:station:TABS:E:1,1995-11-10T12:30:00Z,27.3383,-97.1000,2.0,156.1703958,23.61295407,-99999.0,'11111222,11111222,99999999' 
TABS,ioos:station:TABS:E:1,1995-11-10T13:00:00Z,27.3383,-97.1000,2.0,155.0548027,21.19745268,-99999.0,'11111222,11111222,99999999' 
TABS,ioos:station:TABS:E:1,1995-11-10T13:30:00Z,27.3383,-97.1000,2.0,158.2772803,22.93896685,-99999.0,'11111222,11111222,99999999' 
TABS,ioos:station:TABS:E:1,1995-11-10T14:00:00Z,27.3383,-97.1000,2.0,145.3968001,18.10216562,-99999.0,'11111222,11111222,99999999' 
TABS,ioos:station:TABS:E:1,1995-11-10T14:30:00Z,27.3383,-97.1000,2.0,136.6107089,18.86599322,-99999.0,'11111222,11111222,99999999' 
TABS,ioos:station:TABS:E:1,1995-11-10T15:00:00Z,27.3383,-97.1000,2.0,143.2108602,18.41801835,-99999.0,'11111222,11111222,99999999' 
TABS,ioos:station:TABS:E:1,1995-11-10T15:30:00Z,27.3383,-97.1000,2.0,120.9720631,23.45414675,-99999.0,'11111222,11111222,99999999' 
TABS,ioos:station:TABS:E:1,1995-11-10T16:00:00Z,27.3383,-97.1000,2.0,118.4298228,22.53808554,-99999.0,'11111222,11111222,99999999' 
TABS,ioos:station:TABS:E:1,1995-11-10T16:30:00Z,27.3383,-97.1000,2.0,116.3937874,22.45022272,-99999.0,'11111222,11111222,99999999' 
TABS,ioos:station:TABS:E:1,1995-11-10T17:00:00Z,27.3383,-97.1000,2.0,127.5906255,23.68787454,-99999.0,'11111222,11111222,99999999' 
TABS,ioos:station:TABS:E:1,1995-11-10T17:30:00Z,27.3383,-97.1000,2.0,127.7264851,21.67042224,-99999.0,'11111222,11111222,99999999' 
TABS,ioos:station:TABS:E:1,1995-11-10T18:00:00Z,27.3383,-97.1000,2.0,135.7238956,25.18208292,-99999.0,'11111222,11111222,99999999' 
TABS,ioos:station:TABS:E:1,1995-11-10T18:30:00Z,27.3383,-97.1000,2.0,137.3097854,23.50918969,-99999.0,'11111222,11111222,99999999' 
TABS,ioos:station:TABS:E:1,1995-11-10T19:00:00Z,27.3383,-97.1000,2.0,142.5793868,24.76714356,-99999.0,'11111222,11111222,99999999' 
TABS,ioos:station:TABS:E:1,1995-11-10T19:30:00Z,27.3383,-97.1000,2.0,151.585388,22.86452492,-99999.0,'11111222,11111222,99999999' 
TABS,ioos:station:TABS:E:1,1995-11-10T20:00:00Z,27.3383,-97.1000,2.0,164.2692349,21.98333915,-99999.0,'11111222,11111222,99999999' 
TABS,ioos:station:TABS:E:1,1995-11-10T20:30:00Z,27.3383,-97.1000,2.0,147.6710981,17.27824065,-99999.0,'11111222,11111222,99999999' 
TABS,ioos:station:TABS:E:1,1995-11-10T21:00:00Z,27.3383,-97.1000,2.0,142.5645789,15.20074011,-99999.0,'11111222,11111222,99999999' 
TABS,ioos:station:TABS:E:1,1995-11-10T21:30:00Z,27.3383,-97.1000,2.0,134.5458976,13.38595159,-99999.0,'11111222,11111222,99999999' 
TABS,ioos:station:TABS:E:1,1995-11-10T22:00:00Z,27.3383,-97.1000,2.0,157.0609627,17.96027839,-99999.0,'11111222,11111222,99999999' 
TABS,ioos:station:TABS:E:1,1995-11-10T22:30:00Z,27.3383,-97.1000,2.0,159.1514702,16.7464653,-99999.0,'11111222,11111222,99999999' 
TABS,ioos:station:TABS:E:1,1995-11-10T23:00:00Z,27.3383,-97.1000,2.0,149.9932229,12.21754885,-99999.0,'11111222,11111222,99999999' 
TABS,ioos:station:TABS:E:1,1995-11-10T23:30:00Z,27.3383,-97.1000,2.0,139.0716991,10.45621825,-99999.0,'11111222,11111222,99999999' 
TABS,ioos:station:TABS:E:1,1995-11-11T00:00:00Z,27.3383,-97.1000,2.0,122.1136048,8.972898083,-99999.0,'11133222,11111222,99999999' 
TABS,ioos:station:TABS:E:1,1995-11-11T00:30:00Z,27.3383,-97.1000,2.0,120.7827892,8.14793839,-99999.0,'11133222,11111222,99999999' 
TABS,ioos:station:TABS:E:1,1995-11-11T01:00:00Z,27.3383,-97.1000,2.0,101.1744556,10.78445641,-99999.0,'11111222,11111222,99999999' 
TABS,ioos:station:TABS:E:1,1995-11-11T01:30:00Z,27.3383,-97.1000,2.0,113.8100652,11.07238908,-99999.0,'11111222,11111222,99999999' 
TABS,ioos:station:TABS:E:1,1995-11-11T02:00:00Z,27.3383,-97.1000,2.0,99.70543092,12.39743925,-99999.0,'11111222,11111222,99999999' 
TABS,ioos:station:TABS:E:1,1995-11-11T02:30:00Z,27.3383,-97.1000,2.0,101.309906,15.19507815,-99999.0,'11111222,11111222,99999999' 
TABS,ioos:station:TABS:E:1,1995-11-11T03:00:00Z,27.3383,-97.1000,2.0,94.03315387,14.78661895,-99999.0,'11111222,11111222,99999999' 
TABS,ioos:station:TABS:E:1,1995-11-11T03:30:00Z,27.3383,-97.1000,2.0,91.92195146,13.41754821,-99999.0,'11111222,11111222,99999999' 
TABS,ioos:station:TABS:E:1,1995-11-11T04:00:00Z,27.3383,-97.1000,2.0,86.96596745,14.16986238,-99999.0,'11111222,11111222,99999999' 
TABS,ioos:station:TABS:E:1,1995-11-11T04:30:00Z,27.3383,-97.1000,2.0,88.12007385,13.71738313,-99999.0,'11111222,11111222,99999999' 
TABS,ioos:station:TABS:E:1,1995-11-11T05:00:00Z,27.3383,-97.1000,2.0,94.70784124,14.4989172,-99999.0,'11111222,11111222,99999999' 
TABS,ioos:station:TABS:E:1,1995-11-11T05:30:00Z,27.3383,-97.1000,2.0,90.0,18.03,-99999.0,'11111222,11111222,99999999' 
TABS,ioos:station:TABS:E:1,1995-11-11T06:00:00Z,27.3383,-97.1000,2.0,87.78263919,19.38451444,-99999.0,'11111222,11111222,99999999' 
TABS,ioos:station:TABS:E:1,1995-11-11T06:30:00Z,27.3383,-97.1000,2.0,99.12966646,20.67187703,-99999.0,'11111222,11111222,99999999' 
TABS,ioos:station:TABS:E:1,1995-11-11T07:00:00Z,27.3383,-97.1000,2.0,103.146147,22.95149015,-99999.0,'11111222,11111222,99999999' 
TABS,ioos:station:TABS:E:1,1995-11-11T07:30:00Z,27.3383,-97.1000,2.0,104.3104995,22.29170474,-99999.0,'11111222,11111222,99999999' 
TABS,ioos:station:TABS:E:1,1995-11-11T08:00:00Z,27.3383,-97.1000,2.0,113.5386779,23.8876872,-99999.0,'11111222,11111222,99999999' 
TABS,ioos:station:TABS:E:1,1995-11-11T08:30:00Z,27.3383,-97.1000,2.0,117.8112685,24.26260497,-99999.0,'11111222,11111222,99999999' 
TABS,ioos:station:TABS:E:1,1995-11-11T09:00:00Z,27.3383,-97.1000,2.0,129.1619483,26.90352579,-99999.0,'11111222,11111222,99999999' 
TABS,ioos:station:TABS:E:1,1995-11-11T09:30:00Z,27.3383,-97.1000,2.0,130.8056233,27.36052814,-99999.0,'11111222,11111222,99999999' 
TABS,ioos:station:TABS:E:1,1995-11-11T10:00:00Z,27.3383,-97.1000,2.0,136.6942011,28.4593482,-99999.0,'11111222,11111222,99999999' 
TABS,ioos:station:TABS:E:1,1995-11-11T10:30:00Z,27.3383,-97.1000,2.0,146.8644546,33.80778756,-99999.0,'11111222,11111222,99999999' 
TABS,ioos:station:TABS:E:1,1995-11-11T11:00:00Z,27.3383,-97.1000,2.0,159.3985519,47.43328051,-99999.0,'11111222,11111222,99999999' 
TABS,ioos:station:TABS:E:1,1995-11-11T11:30:00Z,27.3383,-97.1000,2.0,179.257465,68.69576552,-99999.0,'11111222,11111222,99999999' 
TABS,ioos:station:TABS:E:1,1995-11-11T12:00:00Z,27.3383,-97.1000,2.0,183.7630128,74.96163285,-99999.0,'11111222,11111222,99999999' 
TABS,ioos:station:TABS:E:1,1995-11-11T12:30:00Z,27.3383,-97.1000,2.0,187.8558887,69.79506573,-99999.0,'11111222,11111222,99999999' 
TABS,ioos:station:TABS:E:1,1995-11-11T13:00:00Z,27.3383,-97.1000,2.0,194.4387676,66.93421024,-99999.0,'11111222,11111222,99999999' 
TABS,ioos:station:TABS:E:1,1995-11-11T13:30:00Z,27.3383,-97.1000,2.0,199.0123082,65.87359107,-99999.0,'11111222,11111222,99999999' 
TABS,ioos:station:TABS:E:1,1995-11-11T14:00:00Z,27.3383,-97.1000,2.0,204.9728447,62.45959734,-99999.0,'11111222,11111222,99999999' 
TABS,ioos:station:TABS:E:1,1995-11-11T14:30:00Z,27.3383,-97.1000,2.0,201.9461931,77.75460115,-99999.0,'11111222,11111222,99999999' 
TABS,ioos:station:TABS:E:1,1995-11-11T15:00:00Z,27.3383,-97.1000,2.0,206.024394,77.76495869,-99999.0,'11111222,11111222,99999999' 
TABS,ioos:station:TABS:E:1,1995-11-11T15:30:00Z,27.3383,-97.1000,2.0,203.7930367,64.64432612,-99999.0,'11111222,11111222,99999999' 
TABS,ioos:station:TABS:E:1,1995-11-11T16:00:00Z,27.3383,-97.1000,2.0,204.3508878,74.09151436,-99999.0,'11111222,11111222,99999999' 
TABS,ioos:station:TABS:E:1,1995-11-11T16:30:00Z,27.3383,-97.1000,2.0,203.8514617,70.38088164,-99999.0,'11111222,11111222,99999999' 
TABS,ioos:station:TABS:E:1,1995-11-11T17:00:00Z,27.3383,-97.1000,2.0,201.1847007,64.72414233,-99999.0,'11111222,11111222,99999999' 
TABS,ioos:station:TABS:E:1,1995-11-11T17:30:00Z,27.3383,-97.1000,2.0,199.9082615,60.37836119,-99999.0,'11111222,11111222,99999999' 
TABS,ioos:station:TABS:E:1,1995-11-11T18:00:00Z,27.3383,-97.1000,2.0,201.8260941,59.71034165,-99999.0,'11111222,11111222,99999999' 
TABS,ioos:station:TABS:E:1,1995-11-11T18:30:00Z,27.3383,-97.1000,2.0,200.0404061,58.68329405,-99999.0,'11111222,11111222,99999999' 
TABS,ioos:station:TABS:E:1,1995-11-11T19:00:00Z,27.3383,-97.1000,2.0,200.7582839,59.27820004,-99999.0,'11111222,11111222,99999999' 
TABS,ioos:station:TABS:E:1,1995-11-11T19:30:00Z,27.3383,-97.1000,2.0,203.1398064,59.13782208,-99999.0,'11111222,11111222,99999999' 
TABS,ioos:station:TABS:E:1,1995-11-11T20:00:00Z,27.3383,-97.1000,2.0,203.91548,54.76169829,-99999.0,'11111222,11111222,99999999' 
TABS,ioos:station:TABS:E:1,1995-11-11T20:30:00Z,27.3383,-97.1000,2.0,202.8544712,51.41658585,-99999.0,'11111222,11111222,99999999' 
TABS,ioos:station:TABS:E:1,1995-11-11T21:00:00Z,27.3383,-97.1000,2.0,199.7270756,50.33412858,-99999.0,'11111222,11111222,99999999' 
TABS,ioos:station:TABS:E:1,1995-11-11T21:30:00Z,27.3383,-97.1000,2.0,199.1310294,46.83679109,-99999.0,'11111222,11111222,99999999' 
TABS,ioos:station:TABS:E:1,1995-11-11T22:00:00Z,27.3383,-97.1000,2.0,195.4799132,50.24265618,-99999.0,'11111222,11111222,99999999' 
TABS,ioos:station:TABS:E:1,1995-11-11T22:30:00Z,27.3383,-97.1000,2.0,188.3063387,46.37652531,-99999.0,'11111222,11111222,99999999' 
TABS,ioos:station:TABS:E:1,1995-11-11T23:00:00Z,27.3383,-97.1000,2.0,194.7125558,36.97228286,-99999.0,'11111222,11111222,99999999' 
TABS,ioos:station:TABS:E:1,1995-11-11T23:30:00Z,27.3383,-97.1000,2.0,198.1007161,41.23047659,-99999.0,'11111222,11111222,99999999' 
TABS,ioos:station:TABS:E:1,1995-11-12T00:00:00Z,27.3383,-97.1000,2.0,199.0039759,48.05950582,-99999.0,'11111222,11111222,99999999' 
TABS,ioos:station:TABS:E:1,1995-11-12T00:30:00Z,27.3383,-97.1000,2.0,194.4400876,45.39409653,-99999.0,'11111222,11111222,99999999' 
TABS,ioos:station:TABS:E:1,1995-11-12T01:00:00Z,27.3383,-97.1000,2.0,196.766522,43.88571522,-99999.0,'11111222,11111222,99999999' 
TABS,ioos:station:TABS:E:1,1995-11-12T01:30:00Z,27.3383,-97.1000,2.0,195.4033161,40.96137815,-99999.0,'11111222,11111222,99999999' 
TABS,ioos:station:TABS:E:1,1995-11-12T02:00:00Z,27.3383,-97.1000,2.0,195.9176401,42.91556594,-99999.0,'11111222,11111222,99999999' 
TABS,ioos:station:TABS:E:1,1995-11-12T02:30:00Z,27.3383,-97.1000,2.0,195.3309449,38.31343629,-99999.0,'11111222,11111222,99999999' 
TABS,ioos:station:TABS:E:1,1995-11-12T03:00:00Z,27.3383,-97.1000,2.0,199.9620805,35.35417656,-99999.0,'11111222,11111222,99999999' 
TABS,ioos:station:TABS:E:1,1995-11-12T03:30:00Z,27.3383,-97.1000,2.0,191.6916366,30.8909388,-99999.0,'11111222,11111222,99999999' 
TABS,ioos:station:TABS:E:1,1995-11-12T04:00:00Z,27.3383,-97.1000,2.0,195.0958236,33.1748474,-99999.0,'11111222,11111222,99999999' 
TABS,ioos:station:TABS:E:1,1995-11-12T04:30:00Z,27.3383,-97.1000,2.0,189.4899053,40.63614647,-99999.0,'11111222,11111222,99999999' 
TABS,ioos:station:TABS:E:1,1995-11-12T05:00:00Z,27.3383,-97.1000,2.0,185.3205086,38.60634663,-99999.0,'11111222,11111222,99999999' 
TABS,ioos:station:TABS:E:1,1995-11-12T05:30:00Z,27.3383,-97.1000,2.0,188.374029,35.84215395,-99999.0,'11111222,11111222,99999999' 
TABS,ioos:station:TABS:E:1,1995-11-12T06:00:00Z,27.3383,-97.1000,2.0,189.884928,32.96947073,-99999.0,'11111222,11111222,99999999' 
TABS,ioos:station:TABS:E:1,1995-11-12T06:30:00Z,27.3383,-97.1000,2.0,187.2902417,30.49654735,-99999.0,'11111222,11111222,99999999' 
TABS,ioos:station:TABS:E:1,1995-11-12T07:00:00Z,27.3383,-97.1000,2.0,188.6593622,29.68843883,-99999.0,'11111222,11111222,99999999' 
TABS,ioos:station:TABS:E:1,1995-11-12T07:30:00Z,27.3383,-97.1000,2.0,186.8009083,28.96381363,-99999.0,'11111222,11111222,99999999' 
TABS,ioos:station:TABS:E:1,1995-11-12T08:00:00Z,27.3383,-97.1000,2.0,191.9631688,28.02877985,-99999.0,'11111222,11111222,99999999' 
TABS,ioos:station:TABS:E:1,1995-11-12T08:30:00Z,27.3383,-97.1000,2.0,191.7799338,25.56852166,-99999.0,'11111222,11111222,99999999' 
TABS,ioos:station:TABS:E:1,1995-11-12T09:00:00Z,27.3383,-97.1000,2.0,191.450248,24.78327057,-99999.0,'11111222,11111222,99999999' 
TABS,ioos:station:TABS:E:1,1995-11-12T09:30:00Z,27.3383,-97.1000,2.0,184.3879304,29.14543704,-99999.0,'11111222,11111222,99999999' 
TABS,ioos:station:TABS:E:1,1995-11-12T10:00:00Z,27.3383,-97.1000,2.0,185.7999478,28.00336587,-99999.0,'11111222,11111222,99999999' 
TABS,ioos:station:TABS:E:1,1995-11-12T10:30:00Z,27.3383,-97.1000,2.0,180.33123,25.93043386,-99999.0,'11111222,11111222,99999999' 
TABS,ioos:station:TABS:E:1,1995-11-12T11:00:00Z,27.3383,-97.1000,2.0,179.9997895,26.08,-99999.0,'11111222,11111222,99999999' 
TABS,ioos:station:TABS:E:1,1995-11-12T11:30:00Z,27.3383,-97.1000,2.0,180.9504044,27.12373315,-99999.0,'11111222,11111222,99999999' 
TABS,ioos:station:TABS:E:1,1995-11-12T12:00:00Z,27.3383,-97.1000,2.0,179.6543618,24.88045217,-99999.0,'11111222,11111222,99999999' 
TABS,ioos:station:TABS:E:1,1995-11-12T12:30:00Z,27.3383,-97.1000,2.0,179.9997895,20.56,-99999.0,'11111222,11111222,99999999' 
TABS,ioos:station:TABS:E:1,1995-11-12T13:00:00Z,27.3383,-97.1000,2.0,174.8608515,14.96013369,-99999.0,'11111222,11111222,99999999' 
TABS,ioos:station:TABS:E:1,1995-11-12T13:30:00Z,27.3383,-97.1000,2.0,173.2834074,15.30503512,-99999.0,'11111222,11111222,99999999' 
TABS,ioos:station:TABS:E:1,1995-11-12T14:00:00Z,27.3383,-97.1000,2.0,184.6230577,24.06831319,-99999.0,'11111222,11111222,99999999' 
TABS,ioos:station:TABS:E:1,1995-11-12T14:30:00Z,27.3383,-97.1000,2.0,181.1455497,22.50449955,-99999.0,'11111222,11111222,99999999' 
TABS,ioos:station:TABS:E:1,1995-11-12T15:00:00Z,27.3383,-97.1000,2.0,178.1864765,23.70186912,-99999.0,'11111222,11111222,99999999' 
TABS,ioos:station:TABS:E:1,1995-11-12T15:30:00Z,27.3383,-97.1000,2.0,185.1336614,28.27342392,-99999.0,'11111222,11111222,99999999' 
TABS,ioos:station:TABS:E:1,1995-11-12T16:00:00Z,27.3383,-97.1000,2.0,186.6563066,27.002024,-99999.0,'11111222,11111222,99999999' 
TABS,ioos:station:TABS:E:1,1995-11-12T16:30:00Z,27.3383,-97.1000,2.0,179.6775452,26.67042182,-99999.0,'11111222,11111222,99999999' 
TABS,ioos:station:TABS:E:1,1995-11-12T17:00:00Z,27.3383,-97.1000,2.0,172.3967681,27.0578787,-99999.0,'11111222,11111222,99999999' 
TABS,ioos:station:TABS:E:1,1995-11-12T17:30:00Z,27.3383,-97.1000,2.0,167.6566596,25.77581231,-99999.0,'11111222,11111222,99999999' 
TABS,ioos:station:TABS:E:1,1995-11-12T18:00:00Z,27.3383,-97.1000,2.0,167.7933112,22.56003989,-99999.0,'11111222,11111222,99999999' 
TABS,ioos:station:TABS:E:1,1995-11-12T18:30:00Z,27.3383,-97.1000,2.0,172.4644493,20.43648698,-99999.0,'11111222,11111222,99999999' 
TABS,ioos:station:TABS:E:1,1995-11-12T19:00:00Z,27.3383,-97.1000,2.0,174.9286719,26.92539322,-99999.0,'11111222,11111222,99999999' 
TABS,ioos:station:TABS:E:1,1995-11-12T19:30:00Z,27.3383,-97.1000,2.0,179.3795073,27.71162391,-99999.0,'11111222,11111222,99999999' 
TABS,ioos:station:TABS:E:1,1995-11-12T20:00:00Z,27.3383,-97.1000,2.0,174.8109356,27.9746403,-99999.0,'11111222,11111222,99999999' 
TABS,ioos:station:TABS:E:1,1995-11-12T20:30:00Z,27.3383,-97.1000,2.0,172.2963143,28.87055594,-99999.0,'11111222,11111222,99999999' 
TABS,ioos:station:TABS:E:1,1995-11-12T21:00:00Z,27.3383,-97.1000,2.0,168.3902958,27.38014792,-99999.0,'11111222,11111222,99999999' 
TABS,ioos:station:TABS:E:1,1995-11-12T21:30:00Z,27.3383,-97.1000,2.0,159.5179165,28.95015199,-99999.0,'11111222,11111222,99999999' 
TABS,ioos:station:TABS:E:1,1995-11-12T22:00:00Z,27.3383,-97.1000,2.0,158.4128262,30.76807599,-99999.0,'11111222,11111222,99999999' 
TABS,ioos:station:TABS:E:1,1995-11-12T22:30:00Z,27.3383,-97.1000,2.0,157.8952276,30.87971017,-99999.0,'11111222,11111222,99999999' 
TABS,ioos:station:TABS:E:1,1995-11-12T23:00:00Z,27.3383,-97.1000,2.0,160.518558,30.82469789,-99999.0,'11111222,11111222,99999999' 
TABS,ioos:station:TABS:E:1,1995-11-12T23:30:00Z,27.3383,-97.1000,2.0,162.9288082,27.89919354,-99999.0,'11111222,11111222,99999999' 
TABS,ioos:station:TABS:E:1,1995-11-13T00:00:00Z,27.3383,-97.1000,2.0,165.1355983,30.21096655,-99999.0,'11111222,11111222,99999999' 
TABS,ioos:station:TABS:E:1,1995-11-13T00:30:00Z,27.3383,-97.1000,2.0,160.9546855,30.5841217,-99999.0,'11111222,11111222,99999999' 
TABS,ioos:station:TABS:E:1,1995-11-13T01:00:00Z,27.3383,-97.1000,2.0,157.5963339,29.33405529,-99999.0,'11111222,11111222,99999999' 
TABS,ioos:station:TABS:E:1,1995-11-13T01:30:00Z,27.3383,-97.1000,2.0,153.3104766,28.85428911,-99999.0,'11111222,11111222,99999999' 
TABS,ioos:station:TABS:E:1,1995-11-13T02:00:00Z,27.3383,-97.1000,2.0,153.8404578,29.05619555,-99999.0,'11111222,11111222,99999999' 
TABS,ioos:station:TABS:E:1,1995-11-13T02:30:00Z,27.3383,-97.1000,2.0,155.3339603,28.20336505,-99999.0,'11111222,11111222,99999999' 
TABS,ioos:station:TABS:E:1,1995-11-13T03:00:00Z,27.3383,-97.1000,2.0,154.599975,26.39105909,-99999.0,'11111222,11111222,99999999' 
TABS,ioos:station:TABS:E:1,1995-11-13T03:30:00Z,27.3383,-97.1000,2.0,154.4595707,26.25563749,-99999.0,'11111222,11111222,99999999' 
TABS,ioos:station:TABS:E:1,1995-11-13T04:00:00Z,27.3383,-97.1000,2.0,154.4974782,21.46099951,-99999.0,'11111222,11111222,99999999' 
TABS,ioos:station:TABS:E:1,1995-11-13T04:30:00Z,27.3383,-97.1000,2.0,154.5143493,21.12564792,-99999.0,'11111222,11111222,99999999' 
TABS,ioos:station:TABS:E:1,1995-11-13T05:00:00Z,27.3383,-97.1000,2.0,154.1075169,22.85418999,-99999.0,'11111222,11111222,99999999' 
TABS,ioos:station:TABS:E:1,1995-11-13T05:30:00Z,27.3383,-97.1000,2.0,151.8593322,21.79648596,-99999.0,'11111222,11111222,99999999' 
TABS,ioos:station:TABS:E:1,1995-11-13T06:00:00Z,27.3383,-97.1000,2.0,147.6278881,21.70284083,-99999.0,'11111222,11111222,99999999' 
TABS,ioos:station:TABS:E:1,1995-11-13T06:30:00Z,27.3383,-97.1000,2.0,146.4247291,20.74028206,-99999.0,'11111222,11111222,99999999' 
TABS,ioos:station:TABS:E:1,1995-11-13T07:00:00Z,27.3383,-97.1000,2.0,142.1871588,20.17673165,-99999.0,'11111222,11111222,99999999' 
TABS,ioos:station:TABS:E:1,1995-11-13T07:30:00Z,27.3383,-97.1000,2.0,130.6963864,18.28075491,-99999.0,'11111222,11111222,99999999' 
TABS,ioos:station:TABS:E:1,1995-11-13T08:00:00Z,27.3383,-97.1000,2.0,123.3863581,15.70100952,-99999.0,'11111222,11111222,99999999' 
TABS,ioos:station:TABS:E:1,1995-11-13T08:30:00Z,27.3383,-97.1000,2.0,113.562782,15.28437765,-99999.0,'11111222,11111222,99999999' 
TABS,ioos:station:TABS:E:1,1995-11-13T09:00:00Z,27.3383,-97.1000,2.0,102.0615863,15.69652509,-99999.0,'11111222,11111222,99999999' 
TABS,ioos:station:TABS:E:1,1995-11-13T09:30:00Z,27.3383,-97.1000,2.0,101.6275214,16.27396694,-99999.0,'11111222,11111222,99999999' 
TABS,ioos:station:TABS:E:1,1995-11-13T10:00:00Z,27.3383,-97.1000,2.0,112.2968689,16.10410196,-99999.0,'11111222,11111222,99999999' 
TABS,ioos:station:TABS:E:1,1995-11-13T10:30:00Z,27.3383,-97.1000,2.0,120.7110842,17.50503071,-99999.0,'11111222,11111222,99999999' 
TABS,ioos:station:TABS:E:1,1995-11-13T11:00:00Z,27.3383,-97.1000,2.0,114.158901,17.47014883,-99999.0,'11111222,11111222,99999999' 
TABS,ioos:station:TABS:E:1,1995-11-13T11:30:00Z,27.3383,-97.1000,2.0,118.283052,17.60129541,-99999.0,'11111222,11111222,99999999' 
TABS,ioos:station:TABS:E:1,1995-11-13T12:00:00Z,27.3383,-97.1000,2.0,118.3164221,17.26603892,-99999.0,'11111222,11111222,99999999' 
TABS,ioos:station:TABS:E:1,1995-11-13T12:30:00Z,27.3383,-97.1000,2.0,126.6763275,18.95210806,-99999.0,'11111222,11111222,99999999' 